Location: ČR
(50.0000°N, 15.0000°E)
Time: 15:40:23
(UTC+00:00)

ISS - Visible Passes

Search period start: 25 September 2021 00:00
Search period end: 05 October 2021 00:00
Orbit: 417 x 423 km, 51.6° (Epoch: 25 September)

Date Brightness Start Highest point End Pass type
(mag) Time Alt. Az. Time Alt. Az. Time Alt. Az.
25 Sep -3.5 18:14:57 10° W 18:18:18 63° N 18:19:54 28° ENE visible
25 Sep -1.0 19:51:51 10° WNW 19:52:51 18° WNW 19:52:51 18° WNW visible
26 Sep -3.5 17:27:33 10° W 17:30:54 66° N 17:34:16 10° ENE visible
26 Sep -3.1 19:04:30 10° WNW 19:07:15 56° WNW 19:07:15 56° WNW visible
27 Sep -3.7 18:17:05 10° WNW 18:20:27 71° N 18:21:36 37° E visible
27 Sep -0.7 19:53:58 10° W 19:54:34 14° W 19:54:34 14° W visible
28 Sep -3.5 17:29:37 10° W 17:32:58 65° N 17:35:56 13° E visible
28 Sep -2.6 19:06:28 10° WNW 19:08:53 41° W 19:08:53 41° W visible
29 Sep -3.8 18:18:57 10° WNW 18:22:20 80° SSW 18:23:11 47° ESE visible
30 Sep -3.8 17:31:25 10° WNW 17:34:47 83° NNE 17:37:29 15° ESE visible
30 Sep -1.8 19:08:23 10° W 19:10:26 25° WSW 19:10:26 25° WSW visible
01 Oct -2.9 18:20:40 10° W 18:23:53 43° SSW 18:24:44 35° SSE visible
02 Oct -3.4 17:32:59 10° WNW 17:36:19 60° SSW 17:39:03 14° SE visible
02 Oct -1.0 19:10:41 10° WSW 19:12:00 14° SW 19:12:00 14° SW visible
03 Oct -1.7 18:22:29 10° W 18:25:06 21° SW 18:26:22 17° S visible
04 Oct -2.1 17:34:31 10° W 17:37:30 30° SSW 17:40:30 10° SSE visible
